Temperature
29 30 30 30 29 29 29 30 30 30 30 30 29 28 27 26 25 24 24 23 23 23 22 22 21 21 21 20 20 20 20 20 19 19 19 19 19 19 18 18 17 18 17 17
28 29 29 29 29 29 29 29 30 30 29 30 28 27 26 25 24 24 23 23 22 22 21 21 21 20 20 20 20 20 20 19 19 19 19 19 18 18 18 18 17 17 17 17
28 28 28 28 29 29 29 29 29 29 29 28 27 26 25 25 24 23 23 23 22 21 21 21 20 20 20 20 20 20 20 19 19 19 19 18 18 18 18 18 17 17 17 17
27 27 26 28 29 29 28 28 28 28 28 27 26 25 24 23 23 23 22 22 21 21 21 20 20 20 20 19 19 19 19 19 19 19 18 18 18 18 17 17 17 17 17 16
27 27 27 27 27 28 27 27 27 27 27 26 25 25 24 23 22 22 22 21 21 20 20 20 20 19 19 19 19 19 19 19 18 18 18 18 18 17 17 17 17 16 16 16
26 26 26 27 27 26 27 26 27 26 26 25 25 26 25 22 21 21 20 20 20 20 20 19 19 19 19 19 18 18 18 18 18 18 18 17 17 17 17 17 16 16 16 16
25 25 27 26 26 26 25 25 25 24 24 23 24 24 22 21 20 20 19 19 19 19 19 19 18 18 18 18 18 18 18 17 17 17 17 17 17 17 16 16 16 16 16 15
25 25 25 24 25 25 24 23 23 23 23 22 22 21 20 20 19 19 19 19 18 18 18 18 18 18 17 18 17 17 17 17 17 17 16 16 16 16 16 16 15 15 15 15
25 25 23 22 23 22 21 21 21 21 21 21 20 20 19 19 18 18 18 18 18 17 17 17 17 17 17 17 17 17 16 16 16 16 16 16 16 16 15 15 15 15 15 15
22 23 22 21 21 20 20 20 20 20 20 20 20 19 19 18 18 18 17 17 17 17 17 16 16 16 16 16 16 16 16 16 15 15 15 15 15 15 15 15 15 15 15 15
21 22 21 20 20 19 19 19 19 19 19 19 19 19 18 17 17 17 16 16 16 16 16 16 16 16 16 16 16 15 15 15 15 15 15 15 15 14 14 14 14 14 14 14
21 20 20 20 19 18 18 18 18 18 19 18 18 18 17 17 16 16 16 16 16 16 15 15 16 16 16 16 15 15 15 15 15 15 14 14 14 14 14 14 14 14 13 13
19 18 18 18 18 18 18 17 17 17 17 17 17 17 17 16 16 15 15 15 15 15 15 15 15 15 15 15 15 15 15 14 14 14 14 14 14 14 14 13 13 13 13 13
17 17 17 17 17 17 17 17 17 17 16 16 16 16 16 16 15 15 15 15 15 15 15 14 15 15 15 15 15 14 14 14 14 14 14 13 13 14 13 13 13 13 13 13
16 16 17 17 16 16 16 16 16 16 16 15 15 15 15 15 15 14 14 14 14 14 14 14 14 14 14 14 14 14 14 13 13 13 13 13 13 13 13 13 13 13 13 12
16 16 16 16 16 16 16 16 16 16 15 15 15 15 15 14 14 14 14 14 14 14 14 14 13 13 13 13 13 13 13 13 13 13 13 13 13 13 13 13 13 13 13 12
15 16 16 16 15 15 15 15 15 15 15 15 14 14 14 14 14 13 13 13 13 13 13 13 13 13 13 13 13 12 12 12 13 13 13 13 13 13 13 13 13 13 12 12
15 15 15 15 15 15 14 14 14 14 14 14 14 14 14 14 13 13 13 13 12 12 12 12 13 12 12 12 12 12 12 12 12 13 12 12 12 12 12 12 12 12 12 12
14 14 14 14 14 14 14 14 14 14 14 14 13 13 13 13 13 12 12 12 12 12 12 12 12 12 12 12 12 12 12 12 12 12 12 12 12 12 12 12 12 12 12 12
14 14 14 14 13 14 13 13 13 13 13 13 13 13 13 13 13 12 12 12 12 12 12 12 12 12 11 12 12 12 12 12 12 12 12 12 12 12 12 12 12 11 11 11
13 13 13 13 13 13 13 13 13 13 13 13 13 13 13 12 12 12 12 12 12 12 12 12 12 11 11 11 12 12 12 12 12 11 12 12 11 11 11 11 11 11 11 10
13 13 13 13 13 13 13 13 13 13 13 12 12 12 12 12 12 12 12 12 11 12 11 11 11 11 11 11 11 11 11 11 11 11 11 11 11 11 11 11 10 10 10 10
12 12 12 12 12 12 12 12 12 12 12 12 12 12 12 12 12 12 12 11 11 11 11 11 11 11 11 11 11 11 11 11 11 11 11 11 11 10 10 10 10 10 10 10
11 11 11 12 12 12 12 12 12 12 12 12 11 11 11 12 12 12 12 11 11 11 11 11 11 11 11 11 11 11 11 11 11 11 10 10 10 10 10 10 10 9 9 9
11 11 11 11 11 12 12 11 11 11 11 12 11 11 11 11 11 11 11 11 11 10 10 10 10 10 10 10 10 10 10 10 10 10 10 10 10 10 9 9 9 9 8 8
11 11 11 11 11 11 11 11 11 11 11 11 11 11 11 11 11 11 10 10 10 10 10 10 10 10 10 10 10 10 10 10 10 10 9 9 9 9 9 9 8 8 8 8
11 11 11 11 11 11 11 11 11 11 11 11 11 11 11 11 10 10 10 10 10 10 10 10 10 10 10 10 10 10 10 10 9 9 9 9 9 8 8 8 8 7 7 7
Wind_Speed
12 9 9 11 13 13 15 15 14 11 10 8 5 4 3 3 3 4 5 5 6 6 6 6 6 6 7 7 8 8 9 8 8 8 7 7 7 7 6 6 6 6 5 5
12 11 11 12 13 13 14 14 14 13 11 5 3 2 3 3 4 5 5 6 6 5 5 6 6 7 7 7 7 8 8 8 7 7 7 7 7 6 6 6 5 5 5 5
12 11 12 14 13 12 11 11 11 12 9 4 4 4 4 4 4 4 5 5 6 6 5 5 6 7 7 7 7 8 8 7 6 6 6 6 6 6 6 6 5 5 5 5
10 10 15 8 5 8 10 9 8 8 6 5 4 3 3 3 4 4 5 5 5 5 5 4 5 6 6 6 7 7 7 6 6 6 6 5 5 5 5 5 5 5 5 4
11 14 13 8 5 6 8 9 7 7 6 4 3 5 4 2 3 3 4 3 4 4 4 3 4 4 6 6 6 6 6 5 6 5 5 5 5 5 4 4 4 4 4 4
11 13 14 8 4 4 7 9 4 4 5 4 5 7 4 2 2 2 1 2 2 3 3 3 3 4 6 6 6 6 5 5 5 5 5 5 5 4 3 3 3 3 3 2
14 13 10 2 2 5 9 4 1 2 3 4 5 5 1 1 1 1 2 2 2 3 3 3 3 5 5 5 5 5 4 5 5 5 5 5 4 3 4 3 3 2 2 2
12 14 9 2 3 5 2 3 2 2 3 3 2 1 1 2 2 2 3 3 4 4 3 3 4 5 5 5 5 5 5 5 5 4 4 4 4 4 3 3 4 3 2 2
7 5 2 2 1 0 2 3 3 3 3 2 2 2 2 2 3 3 4 4 4 4 4 4 4 4 5 5 5 6 6 5 5 4 4 4 4 4 3 3 3 2 2 2
5 4 2 1 1 2 3 4 4 4 3 3 2 2 3 3 3 3 3 3 4 5 5 4 4 4 4 4 4 5 5 5 5 5 4 4 3 3 3 3 3 2 2 2
7 5 3 3 3 5 5 4 4 3 3 2 2 2 2 3 3 3 2 2 3 4 4 4 4 4 3 3 3 4 4 4 4 4 4 3 3 1 2 2 2 2 2 2
6 3 4 4 5 6 5 4 3 2 2 1 2 3 3 2 3 3 2 2 3 3 4 4 4 3 2 2 2 3 4 4 4 3 3 3 3 3 4 3 5 3 2 2
6 6 6 6 5 5 3 3 2 1 1 1 1 2 3 2 2 2 2 2 2 3 3 3 3 3 2 1 1 1 2 3 3 3 3 3 3 3 3 3 4 3 2 1
5 5 5 4 4 3 2 1 1 1 1 1 2 2 2 2 2 2 2 2 2 2 2 3 3 2 1 1 2 2 2 3 3 3 2 2 2 2 2 2 2 2 2 3
5 5 5 4 3 2 2 2 2 2 2 1 2 2 3 3 3 2 2 2 3 3 2 2 2 1 1 2 2 2 2 2 2 2 2 2 2 2 2 2 1 1 1 2
4 3 4 3 2 2 2 2 2 2 2 2 2 2 2 3 3 2 2 3 3 3 2 2 2 2 2 2 2 2 2 2 2 2 2 2 2 2 2 2 2 2 1 0
5 5 4 4 3 3 2 2 2 2 2 2 2 2 3 3 3 2 3 3 3 2 3 3 3 2 2 2 2 2 2 3 4 3 2 2 2 2 2 2 2 1 1 1
6 6 5 5 4 4 3 2 2 2 2 2 2 3 3 3 3 3 3 3 3 2 2 3 3 3 3 3 2 2 2 2 2 2 2 2 2 2 2 2 2 1 1 1
5 5 4 4 4 3 3 3 2 2 2 2 3 3 4 4 4 4 4 4 3 3 3 2 3 4 4 3 2 3 3 3 3 3 2 3 3 2 2 2 2 1 1 1
3 3 3 2 3 3 3 2 2 2 3 3 3 3 4 4 4 4 4 3 3 2 2 2 3 3 3 3 3 3 3 3 3 3 3 3 3 3 3 2 2 1 1 2
2 2 2 2 2 2 2 2 2 2 3 3 4 4 4 4 4 4 4 3 2 2 2 3 3 3 3 2 4 3 3 3 3 3 3 3 3 3 2 2 2 2 2 2
2 2 2 2 2 2 2 2 2 3 3 4 4 4 4 4 4 4 3 2 2 2 3 3 3 2 1 3 3 3 3 3 3 3 3 3 3 3 2 3 3 2 2 2
2 2 2 2 2 2 2 2 3 3 3 3 4 4 4 3 3 3 3 3 3 3 2 2 3 3 3 4 3 3 3 2 2 2 2 2 2 3 3 3 3 2 2 2
2 2 1 1 1 2 2 2 2 2 3 3 3 3 3 3 3 3 3 5 3 3 2 4 4 4 6 3 3 3 3 2 2 2 2 2 2 2 2 2 2 1 1 2
2 1 2 2 3 2 2 3 3 3 3 2 3 3 3 2 2 2 3 4 5 4 3 4 5 5 4 3 3 3 3 2 1 1 1 2 2 2 1 1 1 1 1 1
2 2 2 2 2 2 2 2 2 3 3 3 3 3 2 2 3 3 3 4 4 3 2 3 4 4 3 2 2 2 2 2 2 1 1 1 1 1 1 1 1 1 1 1
3 2 2 2 2 2 2 2 2 3 3 3 3 3 2 3 3 3 3 3 3 3 2 2 2 2 2 2 2 1 1 1 1 1 1 1 1 1 0 0 0 0 1 1
Wind_Direction
246 247 237 232 231 227 234 248 256 257 258 265 265 252 230 198 184 183 185 189 197 197 192 193 192 193 198 200 197 196 193 196 201 204 204 205 203 204 202 202 205 207 208 211
235 234 234 238 236 232 235 244 250 255 261 276 257 235 215 202 198 202 201 199 199 198 192 193 194 194 192 194 193 193 195 199 199 200 200 202 202 198 196 200 204 204 210 215
232 225 231 234 232 232 234 241 249 253 261 260 249 233 229 225 215 214 212 210 207 205 200 202 204 198 193 192 190 190 193 195 195 198 200 201 196 189 192 195 196 204 210 212
235 222 232 231 220 233 237 242 251 257 262 247 249 236 236 237 225 218 221 219 215 212 204 203 202 195 187 182 183 185 185 188 191 194 194 190 186 187 190 196 202 208 212 214
232 230 232 221 213 223 233 241 252 251 251 248 246 239 223 223 231 230 225 215 212 216 207 194 187 181 176 173 172 176 180 183 183 182 180 176 178 183 188 193 201 207 207 209
230 237 237 223 195 218 231 237 244 245 244 248 249 248 239 200 215 231 217 191 191 190 177 170 169 166 171 171 169 174 176 179 177 175 171 173 175 181 181 184 194 204 197 197
231 235 235 222 191 195 225 247 327 261 243 240 253 281 317 164 182 186 146 142 151 155 152 152 155 155 158 157 161 161 158 164 166 167 166 166 166 168 169 170 173 189 193 200
227 232 226 94 177 214 273 344 309 275 254 251 276 266 140 147 157 143 126 126 134 134 129 127 137 142 139 141 145 147 157 163 164 165 166 159 156 158 162 166 170 182 188 209
234 233 82 119 183 342 325 312 299 284 283 254 241 210 177 158 143 124 121 120 120 121 120 117 120 129 134 134 144 153 155 159 160 157 158 155 158 161 167 174 185 189 194 206
241 221 205 223 254 306 309 300 295 280 264 246 231 211 175 149 129 119 116 118 120 124 118 107 103 105 113 123 141 147 154 160 162 160 157 152 163 173 183 187 194 198 210 220
240 246 254 245 280 303 305 301 295 279 256 240 216 189 160 141 125 117 106 107 115 117 113 105 98 95 99 116 135 146 153 163 167 161 152 150 154 165 181 161 171 199 218 227
246 244 270 279 305 302 295 291 288 285 282 243 199 164 145 134 126 123 114 109 112 113 111 110 108 98 90 106 136 156 161 169 170 165 162 168 161 141 78 97 95 82 30 314
270 286 288 285 290 296 291 292 298 283 255 202 159 146 142 130 125 123 125 127 126 126 121 117 110 102 94 106 129 148 162 166 160 156 159 171 173 167 156 138 128 112 91 53
262 268 271 278 289 289 273 266 255 235 199 167 153 148 134 128 135 139 143 141 129 122 122 121 118 110 111 121 125 129 151 152 156 149 157 169 174 178 180 179 168 160 150 155
258 257 259 273 285 273 242 200 179 166 156 160 166 166 157 158 164 161 157 153 145 139 137 137 131 121 124 128 131 138 150 154 152 147 157 165 173 179 182 188 187 174 153 143
258 247 245 246 254 254 232 208 196 184 170 169 184 185 174 167 161 162 171 174 166 163 168 166 157 158 159 153 148 146 144 138 155 152 159 166 175 183 190 191 199 199 184 131
242 240 238 241 244 243 231 215 205 205 198 196 193 180 170 167 166 170 176 181 179 176 175 177 178 174 174 177 181 171 167 165 179 174 171 176 186 197 207 207 200 206 199 117
250 249 246 245 245 239 230 221 210 198 196 190 192 184 177 181 192 183 178 178 180 181 183 183 179 179 178 185 200 203 196 186 178 174 170 181 194 198 209 215 205 208 233 155
240 240 240 236 234 222 218 220 213 198 199 205 206 201 196 197 192 186 181 181 188 200 203 195 192 194 186 188 212 207 210 198 188 185 178 179 202 218 221 216 208 216 229 236
239 241 241 235 220 214 216 217 210 205 212 215 212 200 192 188 182 181 187 202 214 210 190 182 189 199 198 199 234 213 211 205 195 191 192 201 206 218 224 226 224 226 232 241
247 242 225 204 201 214 214 210 208 214 217 218 213 207 200 189 184 187 197 203 197 188 182 174 197 204 210 210 218 211 211 207 206 208 210 213 214 217 222 230 239 242 242 245
261 248 222 209 199 210 221 218 203 204 212 215 213 204 196 193 190 189 199 206 175 170 195 195 194 152 203 230 209 204 199 199 205 209 213 212 214 220 224 235 244 246 243 243
247 241 235 224 205 197 207 208 201 199 198 199 200 202 203 201 202 194 187 180 178 173 194 174 132 147 211 225 213 201 197 201 205 211 215 218 226 230 237 244 250 249 252 263
232 232 242 226 196 185 182 174 182 183 179 187 190 193 195 190 192 191 157 141 149 164 168 123 143 191 220 212 196 194 196 203 210 218 227 232 237 241 251 264 271 268 262 274
232 230 218 203 195 186 164 160 161 167 170 162 157 165 182 175 167 149 142 153 158 179 173 152 173 203 213 203 195 194 194 197 211 216 221 242 255 256 262 270 276 276 278 314
217 222 216 205 200 191 175 170 176 172 166 164 157 151 147 145 145 146 152 158 162 176 186 169 177 198 205 197 186 185 186 172 177 201 247 268 263 275 280 281 273 276 300 332
204 199 187 184 184 187 183 183 184 182 176 166 161 152 144 147 148 149 149 153 154 162 174 183 189 196 194 186 178 181 186 196 230 246 238 230 228 238 233 205 259 346 6 7
Height
1474 1471 1472 1475 1477 1478 1481 1479 1482 1479 1479 1477 1479 1482 1485 1488 1490 1492 1493 1495 1496 1498 1499 1500 1502 1504 1505 1507 1509 1511 1513 1514 1515 1517 1518 1519 1520 1521 1521 1522 1522 1522 1522 1523
1478 1473 1473 1476 1473 1474 1475 1476 1475 1475 1476 1475 1479 1482 1485 1487 1489 1490 1492 1493 1494 1495 1497 1497 1499 1500 1502 1503 1505 1507 1509 1511 1512 1514 1515 1516 1517 1517 1518 1519 1519 1519 1519 1520
1478 1474 1476 1480 1472 1471 1473 1472 1474 1477 1476 1476 1479 1481 1484 1485 1487 1488 1490 1491 1492 1493 1494 1495 1496 1497 1498 1500 1502 1504 1506 1508 1509 1511 1512 1513 1514 1514 1515 1515 1516 1516 1516 1516
1475 1480 1490 1471 1465 1467 1470 1472 1472 1473 1474 1476 1479 1481 1483 1485 1485 1486 1487 1488 1489 1491 1491 1492 1493 1495 1496 1497 1499 1501 1502 1504 1505 1507 1508 1509 1510 1511 1512 1512 1513 1513 1514 1514
1476 1478 1475 1469 1467 1468 1471 1473 1472 1473 1475 1477 1478 1479 1481 1483 1484 1484 1485 1485 1486 1488 1489 1489 1490 1491 1492 1493 1495 1497 1499 1500 1501 1502 1504 1505 1506 1507 1508 1509 1510 1511 1511 1511
1476 1479 1478 1467 1465 1469 1472 1475 1471 1473 1475 1476 1477 1475 1476 1480 1482 1482 1483 1483 1484 1485 1486 1486 1487 1488 1489 1491 1493 1494 1496 1497 1498 1499 1500 1502 1503 1504 1506 1507 1507 1508 1508 1509
1474 1474 1465 1464 1466 1470 1478 1474 1473 1474 1475 1476 1477 1476 1478 1478 1479 1480 1480 1480 1481 1482 1483 1484 1484 1485 1487 1488 1490 1492 1494 1495 1496 1497 1498 1500 1501 1502 1503 1504 1505 1505 1506 1506
1471 1473 1470 1467 1467 1469 1472 1473 1474 1474 1475 1476 1476 1476 1477 1477 1478 1478 1479 1479 1479 1480 1481 1482 1483 1484 1485 1486 1488 1490 1492 1493 1494 1495 1497 1498 1499 1500 1501 1502 1502 1503 1503 1504
1465 1467 1469 1470 1471 1473 1474 1474 1474 1474 1474 1475 1475 1476 1476 1477 1477 1477 1478 1478 1479 1479 1480 1481 1482 1483 1484 1485 1487 1489 1490 1491 1492 1493 1495 1496 1497 1498 1499 1499 1501 1501 1502 1502
1468 1466 1469 1471 1472 1473 1473 1473 1473 1473 1473 1473 1474 1474 1475 1475 1476 1476 1477 1478 1478 1479 1480 1481 1482 1483 1484 1485 1486 1487 1488 1490 1491 1492 1493 1494 1495 1496 1497 1498 1498 1499 1499 1500
1468 1468 1470 1470 1472 1472 1472 1472 1471 1472 1472 1472 1472 1473 1474 1474 1475 1476 1476 1477 1478 1478 1479 1480 1482 1482 1484 1485 1485 1486 1487 1488 1490 1490 1491 1492 1493 1494 1495 1495 1496 1497 1497 1498
1465 1468 1470 1470 1471 1471 1470 1470 1470 1470 1470 1471 1471 1472 1473 1474 1474 1475 1476 1477 1477 1478 1479 1480 1481 1482 1483 1483 1484 1485 1486 1487 1488 1489 1490 1491 1491 1492 1492 1493 1493 1494 1495 1496
1468 1469 1469 1469 1469 1469 1469 1469 1469 1469 1469 1469 1470 1471 1472 1473 1474 1474 1475 1475 1477 1477 1478 1479 1480 1481 1482 1482 1483 1484 1484 1485 1487 1488 1488 1489 1490 1491 1491 1492 1492 1492 1493 1493
1468 1468 1468 1468 1468 1468 1468 1468 1468 1469 1469 1469 1469 1470 1471 1472 1473 1474 1474 1475 1476 1476 1477 1478 1479 1480 1480 1481 1481 1482 1483 1485 1485 1486 1487 1488 1489 1490 1491 1491 1491 1491 1491 1491
1466 1466 1466 1466 1467 1467 1467 1467 1467 1467 1468 1469 1469 1470 1471 1472 1473 1473 1474 1475 1475 1476 1477 1478 1478 1479 1479 1480 1481 1481 1482 1484 1484 1485 1486 1487 1488 1489 1490 1490 1490 1490 1490 1490
1464 1464 1464 1465 1465 1466 1466 1466 1466 1466 1467 1468 1468 1469 1470 1471 1471 1472 1473 1474 1474 1475 1476 1476 1476 1477 1478 1479 1479 1480 1481 1482 1483 1484 1485 1486 1487 1488 1488 1489 1489 1489 1488 1488
1462 1462 1463 1463 1463 1464 1464 1465 1465 1465 1466 1466 1467 1468 1468 1469 1470 1470 1471 1472 1473 1474 1474 1475 1475 1476 1477 1477 1478 1480 1480 1481 1481 1482 1484 1484 1485 1486 1487 1488 1487 1487 1487 1487
1460 1460 1461 1461 1461 1462 1462 1463 1463 1464 1465 1465 1466 1467 1467 1467 1468 1469 1470 1471 1472 1473 1473 1473 1474 1474 1475 1476 1477 1478 1479 1479 1480 1481 1482 1483 1484 1484 1485 1486 1486 1486 1486 1486
1457 1458 1459 1459 1460 1460 1460 1461 1462 1462 1463 1464 1465 1465 1466 1467 1468 1468 1469 1469 1469 1470 1471 1472 1472 1473 1473 1473 1475 1476 1477 1478 1479 1479 1480 1480 1482 1483 1484 1484 1484 1484 1484 1484
1455 1456 1457 1457 1457 1458 1458 1459 1459 1460 1461 1462 1463 1463 1464 1464 1465 1466 1466 1467 1467 1468 1469 1469 1470 1471 1471 1471 1473 1473 1475 1476 1477 1477 1478 1479 1480 1481 1482 1482 1482 1482 1481 1481
1454 1454 1454 1455 1455 1456 1456 1457 1457 1458 1459 1460 1461 1461 1462 1463 1463 1464 1464 1465 1466 1466 1467 1468 1469 1469 1469 1470 1470 1472 1473 1474 1475 1475 1475 1476 1477 1478 1479 1479 1479 1479 1479 1478
1452 1452 1453 1453 1453 1454 1454 1455 1456 1456 1457 1458 1459 1459 1459 1460 1461 1461 1462 1463 1464 1464 1465 1466 1468 1468 1468 1468 1469 1470 1471 1472 1472 1473 1474 1474 1475 1476 1476 1476 1476 1476 1475 1475
1450 1451 1451 1451 1451 1451 1452 1453 1454 1454 1455 1455 1456 1456 1457 1457 1458 1459 1460 1461 1462 1462 1464 1465 1466 1465 1466 1466 1467 1468 1469 1469 1470 1471 1472 1472 1473 1473 1473 1473 1473 1473 1472 1472
1448 1448 1448 1449 1449 1450 1450 1451 1452 1452 1453 1453 1454 1454 1455 1455 1456 1457 1458 1459 1460 1461 1462 1463 1463 1464 1464 1464 1465 1466 1466 1467 1467 1468 1469 1469 1469 1470 1470 1470 1470 1469 1469 1468
1446 1446 1447 1447 1448 1448 1449 1449 1450 1451 1452 1452 1452 1452 1453 1454 1455 1456 1457 1458 1459 1460 1461 1461 1462 1462 1462 1462 1463 1464 1464 1465 1465 1465 1466 1466 1466 1467 1467 1467 1467 1467 1466 1465
1444 1445 1446 1446 1446 1447 1447 1448 1449 1450 1450 1451 1451 1452 1452 1453 1454 1454 1455 1457 1458 1458 1459 1460 1460 1460 1461 1461 1462 1462 1462 1463 1463 1463 1464 1464 1464 1464 1464 1463 1463 1463 1463 1462
1443 1444 1444 1445 1446 1447 1447 1448 1448 1449 1450 1450 1450 1451 1452 1453 1453 1454 1455 1456 1457 1457 1458 1459 1459 1459 1460 1460 1460 1460 1461 1461 1461 1461 1462 1462 1461 1461 1461 1461 1461 1460 1459 1459